カタログに戻る

IRIDIUM 165

運用中通信PO
NORAD 43572·PAYLOAD·🇺🇸 United States

打ち上げ Jul 25, 2018 から Vandenberg Space Force Base

Loading…

次のパス (今後24時間)

TLE

最新Source: CelesTrak SupGP

元期: Sep 14, 2026, 21:41 UTC

1 43572C 18061D   26257.90381944 -.00001238  00000+0 -44261-3 0  2579
2 43572  86.4013  19.2827 0002151  94.3706  72.7236 14.34219521    12

AllMySatでIRIDIUM 165をリアルタイム追跡

Download on the App Store